Tracking 30510 objects as of 22-May-2025
HD Live streaming from Space Station
objects crossing your sky now

STARLINK-1667

Track STARLINK-1667 now!
10-day predictions
STARLINK-1667 is classified as:


NORAD ID: 46155
Int'l Code: 2020-057AQ
Perigee: 553.5 km
Apogee: 555.2 km
Inclination: 53.1 °
Period: 95.6 minutes
Semi major axis: 6925 km
RCS: Unknown
Launch date: August 18, 2020
Source: United States (US)
Launch site: AIR FORCE EASTERN TEST RANGE (AFETR)
Your satellite tracking list
Your tracking list is empty




NASA's NSSDC Master Catalog

Two Line Element Set (TLE):
1 46155U 20057AQ  25142.15360557  .00004172  00000-0  29884-3 0  9999
2 46155  53.0528 145.3754 0001240  82.5691 277.5439 15.06397918263347
Source of the keplerian elements: AFSPC